📊 Raw Sensor Data
Showing records 47151 to 47175 of 85,081 total
| ID | Distance (ft) | Battery V | Battery A | Int Temp (°F) | Int Humid (%) | Ext Temp (°F) | Solar V | RSSI | SNR | Time Stamp |
|---|---|---|---|---|---|---|---|---|---|---|
| 37943 | 15.1 | 3.84 | -5 | 52 | 41 | 52 | 0.00 | -81 | 7 | 04/16/2025 02:00 AM |
| 37942 | -- | 3.79 | -5 | 52 | 41 | 52 | 0.00 | -82 | 7 | 04/16/2025 01:45 AM |
| 37941 | 15.2 | 3.79 | -5 | 52 | 41 | 53 | 0.00 | -79 | 8 | 04/16/2025 01:30 AM |
| 37940 | 15.2 | 3.82 | -29 | 52 | 41 | 53 | 0.00 | -76 | 8 | 04/16/2025 01:15 AM |
| 37939 | 15.3 | 3.79 | -5 | 52 | 41 | 53 | 0.00 | -77 | 8 | 04/16/2025 01:00 AM |
| 37938 | -- | 3.79 | -5 | 52 | 41 | 53 | 0.00 | -81 | 7 | 04/16/2025 12:45 AM |
| 37937 | -- | 3.80 | -5 | 52 | 42 | 53 | 0.00 | -82 | 8 | 04/16/2025 12:30 AM |
| 37936 | 15.3 | 3.85 | -5 | 52 | 42 | 53 | 0.00 | -81 | 7 | 04/16/2025 12:15 AM |
| 37935 | -- | 3.80 | -5 | 53 | 42 | 53 | 0.00 | -79 | 8 | 04/16/2025 12:00 AM |
| 37934 | -- | 3.80 | -5 | 53 | 42 | 53 | 0.00 | -81 | 8 | 04/15/2025 11:45 PM |
| 37933 | -- | 3.85 | -5 | 53 | 42 | 53 | 0.00 | -79 | 8 | 04/15/2025 11:30 PM |
| 37932 | -- | 3.80 | -5 | 53 | 42 | 53 | 0.00 | -81 | 7 | 04/15/2025 11:16 PM |
| 37931 | 15.2 | 3.80 | -13 | 53 | 42 | 54 | 0.00 | -77 | 8 | 04/15/2025 11:00 PM |
| 37930 | 15.2 | 3.85 | -5 | 53 | 42 | 54 | 0.00 | -79 | 8 | 04/15/2025 10:45 PM |
| 37929 | 15.2 | 3.80 | -5 | 53 | 42 | 54 | 0.00 | -79 | 8 | 04/15/2025 10:30 PM |
| 37928 | 15.2 | 3.80 | -5 | 53 | 42 | 54 | 0.00 | -81 | 8 | 04/15/2025 10:15 PM |
| 37927 | 15.3 | 3.80 | -5 | 53 | 43 | 54 | 0.00 | -78 | 8 | 04/15/2025 10:00 PM |
| 37926 | 15.3 | 3.80 | -5 | 53 | 43 | 54 | 0.00 | -78 | 8 | 04/15/2025 09:45 PM |
| 37925 | 15.2 | 3.85 | -5 | 54 | 43 | 54 | 0.00 | -81 | 7 | 04/15/2025 09:30 PM |
| 37924 | 15.2 | 3.85 | -5 | 54 | 43 | 54 | 0.00 | -80 | 8 | 04/15/2025 09:15 PM |
| 37923 | 15.2 | 3.80 | -5 | 54 | 44 | 55 | 0.00 | -80 | 8 | 04/15/2025 09:00 PM |
| 37922 | 15.2 | 3.80 | -5 | 54 | 44 | 55 | 0.00 | -79 | 8 | 04/15/2025 08:45 PM |
| 37921 | 15.2 | 3.80 | -5 | 55 | 45 | 55 | 0.00 | -81 | 7 | 04/15/2025 08:30 PM |
| 37920 | 15.2 | 3.86 | -5 | 55 | 46 | 55 | 0.00 | -81 | 7 | 04/15/2025 08:15 PM |
| 37919 | 15.2 | 3.80 | -35 | 56 | 47 | 55 | 0.40 | -75 | 8 | 04/15/2025 08:00 PM |